Temp
-3 -3 -4 -4 -5 -5 -5 -4 -4 -4 -4 -5 -5 -4 -4 -5 -5 -5 -4 -3 -2 -1 -0 1 2 4 7 5 6 7 7 6 6 5 6 6 6 7 5 6 6 5 5
-3 -4 -4 -5 -6 -6 -5 -5 -5 -4 -4 -5 -5 -4 -4 -5 -5 -5 -4 -3 -3 -1 -0 2 3 4 5 6 7 7 7 6 6 6 5 5 5 4 2 3 3 4 3
-4 -4 -4 -5 -6 -6 -6 -5 -4 -5 -4 -4 -4 -4 -4 -4 -4 -4 -4 -3 -2 -2 -0 2 3 4 5 5 6 7 7 6 6 5 6 5 3 2 1 1 1 -0 -1
-4 -4 -5 -5 -6 -6 -6 -6 -4 -4 -5 -4 -3 -3 -3 -4 -4 -4 -3 -3 -2 -2 0 2 3 4 5 6 6 6 6 6 4 4 4 3 1 -1 -1 -1 -2 -3 -3
-4 -3 -5 -6 -6 -6 -6 -6 -5 -4 -4 -4 -3 -3 -3 -3 -4 -3 -3 -2 -2 -1 1 3 3 3 5 6 7 6 7 5 4 4 4 2 1 -1 -2 -2 -2 -4 -5
-4 -3 -4 -5 -6 -6 -6 -6 -6 -5 -5 -4 -3 -3 -2 -2 -2 -2 -2 -1 -1 -0 2 3 3 4 4 5 6 6 6 5 4 3 2 2 1 -1 -2 -2 -3 -4 -6
-3 -3 -4 -4 -6 -6 -6 -6 -6 -5 -5 -5 -4 -3 -3 -2 -1 -0 -0 0 1 2 3 3 4 4 4 5 5 4 3 2 2 3 2 2 1 1 0 -2 -3 -3 -5
-3 -3 -4 -4 -5 -5 -6 -5 -6 -6 -5 -6 -5 -5 -4 -4 -3 -1 1 1 0 0 1 2 3 3 3 3 3 3 2 1 1 0 1 0 -0 -0 -1 -2 -4 -4 -5
-3 -4 -4 -4 -4 -4 -4 -5 -5 -6 -5 -6 -6 -5 -5 -5 -4 -3 -1 -1 -1 -1 -1 -0 0 0 0 1 1 0 0 -0 -1 -1 -1 -1 -1 -2 -2 -3 -5 -5 -6
-2 -3 -4 -4 -4 -4 -4 -4 -4 -5 -5 -5 -5 -5 -5 -4 -3 -2 -1 -1 -1 -2 -2 -2 -1 -0 -1 -1 -0 -0 -1 -2 -1 -2 -2 -2 -3 -3 -5 -5 -4 -5 -5
-2 -3 -3 -2 -3 -3 -3 -3 -3 -3 -3 -3 -3 -4 -4 -3 -3 -2 -2 -1 -2 -2 -2 -2 -2 -1 -1 -1 -1 -1 -0 -1 -1 -1 -2 -3 -3 -4 -5 -5 -5 -5 -5
-2 -2 -2 -2 -2 -2 -2 -2 -2 -2 -2 -2 -3 -3 -3 -4 -3 -3 -2 -2 -2 -2 -3 -3 -3 -3 -3 -3 -2 -2 -2 -1 -1 -1 -1 -2 -3 -5 -5 -5 -6 -6 -5
-1 -2 -2 -2 -2 -2 -2 -2 -2 -2 -2 -2 -2 -3 -3 -4 -3 -3 -3 -2 -2 -2 -2 -3 -3 -3 -2 -2 -2 -1 -2 -1 -1 -2 -2 -3 -4 -5 -4 -4 -5 -5 -6
-1 -2 -2 -2 -2 -2 -2 -2 -3 -3 -3 -3 -3 -2 -3 -3 -3 -3 -3 -2 -2 -2 -3 -3 -3 -2 -2 -2 -2 -3 -3 -3 -3 -3 -3 -4 -4 -4 -5 -5 -5 -6 -6
-1 -1 -1 -1 -1 -1 -1 -1 -2 -3 -3 -4 -4 -4 -4 -4 -4 -4 -4 -3 -3 -3 -3 -3 -3 -3 -3 -3 -3 -4 -4 -4 -4 -4 -4 -5 -5 -5 -6 -6 -6 -7 -7
-1 -2 -2 -2 -2 -2 -2 -2 -2 -2 -2 -2 -3 -3 -3 -3 -4 -3 -3 -3 -3 -3 -3 -3 -3 -4 -4 -4 -4 -4 -5 -5 -5 -6 -6 -6 -6 -6 -6 -7 -7 -7 -8
-1 -2 -2 -2 -3 -3 -3 -3 -3 -4 -4 -4 -4 -4 -4 -4 -3 -3 -4 -4 -4 -4 -4 -5 -5 -5 -5 -5 -5 -6 -6 -6 -6 -6 -6 -7 -7 -7 -8 -8 -8 -8 -9
-1 -1 -2 -2 -2 -3 -3 -3 -3 -3 -3 -3 -3 -4 -4 -5 -5 -5 -5 -5 -4 -5 -4 -4 -5 -5 -6 -6 -6 -6 -6 -6 -6 -6 -6 -7 -7 -7 -7 -8 -8 -9 -10
-1 -1 -2 -2 -3 -3 -3 -3 -4 -4 -4 -4 -4 -4 -3 -3 -3 -3 -3 -4 -4 -4 -5 -5 -5 -5 -5 -5 -5 -5 -5 -6 -6 -6 -7 -7 -8 -8 -8 -9 -9 -10 -11
-0 -1 -2 -2 -2 -3 -3 -4 -4 -5 -5 -5 -5 -6 -6 -6 -5 -5 -4 -5 -5 -5 -5 -5 -5 -5 -6 -6 -6 -6 -6 -6 -7 -7 -8 -8 -9 -9 -9 -10 -11 -11 -12
-0 -1 -2 -2 -3 -3 -4 -4 -5 -4 -5 -5 -6 -7 -7 -8 -8 -9 -9 -9 -8 -7 -7 -7 -6 -7 -7 -7 -7 -7 -7 -7 -8 -8 -9 -9 -10 -10 -11 -11 -12 -12 -13
-0 -1 -1 -2 -2 -3 -4 -4 -5 -5 -5 -6 -7 -7 -8 -9 -9 -9 -10 -10 -8 -8 -7 -7 -8 -8 -8 -8 -8 -9 -9 -9 -9 -10 -10 -10 -11 -11 -12 -12 -13 -13 -14
-1 -1 -1 -2 -2 -3 -3 -4 -4 -5 -5 -6 -7 -7 -7 -7 -8 -9 -9 -10 -9 -9 -8 -8 -8 -8 -8 -8 -9 -9 -9 -9 -10 -11 -11 -11 -12 -12 -13 -13 -14 -14 -15
-1 -1 -1 -2 -2 -3 -3 -4 -4 -5 -5 -6 -7 -7 -7 -7 -8 -8 -8 -9 -9 -9 -9 -9 -9 -9 -10 -10 -9 -10 -10 -11 -11 -12 -12 -12 -13 -13 -14 -14 -15 -15 -16
-1 -2 -2 -2 -2 -3 -4 -4 -5 -5 -6 -6 -7 -7 -8 -8 -8 -9 -9 -9 -10 -10 -10 -10 -10 -10 -11 -11 -11 -12 -12 -13 -13 -13 -13 -14 -14 -15 -15 -16 -16 -17 -17
-2 -3 -4 -4 -4 -4 -5 -6 -7 -7 -8 -8 -8 -8 -8 -9 -9 -10 -10 -10 -10 -10 -11 -11 -12 -12 -12 -13 -13 -13 -14 -14 -14 -15 -15 -15 -16 -16 -16 -17 -17 -18 -19
Height
1383 1377 1370 1364 1358 1353 1347 1341 1334 1328 1323 1318 1317 1317 1318 1318 1320 1322 1325 1327 1331 1335 1342 1347 1350 1355 1355 1366 1374 1378 1383 1390 1391 1393 1400 1404 1411 1418 1423 1428 1432 1439 1441
1380 1373 1366 1360 1353 1347 1340 1334 1328 1320 1314 1309 1307 1307 1309 1310 1312 1315 1317 1320 1323 1327 1332 1337 1342 1349 1352 1355 1364 1368 1376 1384 1388 1389 1392 1397 1402 1408 1414 1417 1425 1427 1436
1377 1370 1363 1356 1349 1342 1335 1328 1322 1314 1307 1301 1298 1297 1299 1301 1304 1307 1309 1312 1315 1320 1325 1330 1334 1342 1345 1352 1356 1359 1369 1375 1377 1380 1383 1390 1395 1403 1409 1413 1417 1423 1427
1376 1369 1361 1353 1346 1339 1332 1325 1318 1310 1303 1296 1292 1290 1291 1293 1296 1299 1302 1306 1310 1313 1318 1322 1326 1333 1337 1343 1348 1355 1361 1367 1369 1374 1374 1381 1386 1395 1403 1407 1412 1424 1425
1375 1369 1361 1353 1345 1338 1331 1323 1316 1308 1301 1293 1288 1285 1285 1286 1288 1291 1295 1300 1304 1307 1311 1316 1321 1327 1332 1336 1342 1347 1352 1358 1363 1367 1368 1377 1381 1389 1396 1402 1411 1416 1422
1376 1370 1362 1354 1345 1338 1330 1323 1316 1308 1301 1294 1287 1283 1279 1279 1282 1286 1290 1294 1298 1301 1306 1313 1318 1322 1327 1333 1337 1341 1347 1351 1357 1360 1366 1369 1377 1383 1389 1395 1404 1411 1420
1378 1372 1365 1357 1348 1340 1332 1325 1317 1310 1304 1297 1290 1284 1280 1278 1280 1284 1287 1291 1295 1300 1305 1308 1313 1316 1321 1327 1333 1338 1344 1348 1354 1359 1364 1368 1374 1377 1383 1388 1398 1406 1412
1379 1373 1368 1361 1352 1345 1337 1330 1322 1314 1309 1303 1296 1289 1284 1283 1283 1284 1287 1291 1294 1297 1301 1305 1309 1313 1318 1323 1329 1337 1344 1347 1352 1361 1365 1368 1373 1375 1381 1387 1395 1403 1414
1381 1375 1370 1365 1358 1350 1343 1336 1328 1321 1316 1309 1302 1297 1292 1290 1290 1290 1291 1293 1297 1301 1306 1309 1313 1316 1321 1327 1330 1335 1338 1349 1356 1359 1363 1368 1371 1374 1382 1387 1395 1404 1414
1381 1377 1374 1370 1364 1357 1351 1344 1337 1330 1323 1318 1311 1305 1303 1301 1300 1299 1299 1299 1301 1306 1311 1316 1320 1321 1327 1332 1335 1336 1344 1349 1350 1355 1359 1366 1373 1376 1388 1392 1397 1403 1412
1382 1379 1377 1373 1368 1364 1359 1352 1346 1340 1334 1327 1322 1318 1314 1314 1314 1312 1312 1311 1313 1317 1320 1323 1327 1331 1336 1338 1342 1342 1346 1348 1350 1355 1365 1374 1374 1384 1392 1396 1403 1409 1414
1382 1381 1378 1375 1372 1368 1364 1360 1354 1350 1344 1339 1335 1330 1327 1327 1327 1327 1326 1325 1327 1327 1329 1333 1337 1341 1345 1348 1349 1350 1351 1353 1356 1362 1368 1372 1382 1394 1397 1400 1405 1408 1412
1382 1381 1379 1377 1375 1372 1369 1365 1361 1357 1352 1347 1343 1340 1338 1337 1336 1336 1336 1338 1338 1338 1339 1343 1347 1350 1351 1351 1354 1354 1358 1359 1363 1369 1371 1381 1393 1397 1399 1402 1404 1410 1412
1382 1380 1379 1378 1376 1375 1372 1369 1366 1363 1360 1356 1353 1350 1348 1347 1346 1347 1347 1346 1347 1347 1350 1353 1356 1357 1357 1356 1358 1360 1364 1367 1371 1373 1380 1390 1394 1396 1399 1403 1406 1407 1409
1380 1379 1378 1377 1375 1373 1372 1371 1369 1367 1364 1362 1359 1358 1356 1354 1354 1354 1355 1354 1355 1355 1357 1358 1361 1362 1362 1361 1363 1366 1369 1372 1376 1380 1386 1391 1394 1397 1401 1402 1404 1404 1404
1378 1378 1378 1377 1376 1374 1373 1371 1370 1369 1368 1367 1366 1365 1364 1362 1361 1360 1360 1360 1360 1360 1361 1363 1364 1365 1365 1366 1368 1370 1374 1378 1382 1384 1386 1388 1393 1396 1398 1401 1401 1401 1401
1373 1374 1375 1375 1374 1374 1374 1373 1372 1371 1369 1367 1365 1365 1365 1365 1366 1366 1366 1365 1365 1365 1366 1366 1367 1367 1369 1370 1372 1375 1377 1381 1383 1383 1385 1387 1390 1394 1395 1396 1396 1396 1397
1367 1368 1370 1370 1370 1371 1371 1371 1371 1370 1370 1370 1369 1368 1367 1366 1365 1365 1365 1365 1365 1365 1365 1366 1367 1368 1370 1373 1374 1375 1376 1377 1379 1379 1381 1385 1389 1390 1391 1393 1392 1393 1393
1363 1365 1366 1367 1367 1367 1368 1368 1368 1368 1368 1368 1368 1368 1368 1368 1368 1367 1366 1366 1366 1366 1366 1366 1367 1369 1370 1371 1371 1371 1372 1373 1375 1378 1380 1383 1386 1386 1386 1386 1386 1387 1388
1357 1360 1361 1362 1363 1364 1365 1366 1366 1367 1367 1366 1366 1366 1365 1366 1365 1365 1365 1365 1365 1366 1366 1366 1367 1367 1367 1368 1368 1369 1370 1372 1374 1375 1377 1378 1378 1378 1379 1380 1381 1380 1380
1350 1353 1355 1357 1359 1361 1362 1363 1364 1365 1365 1364 1364 1363 1363 1363 1362 1362 1363 1363 1363 1363 1363 1363 1364 1364 1365 1365 1366 1367 1368 1369 1370 1371 1371 1371 1371 1371 1372 1372 1372 1372 1372
1341 1345 1348 1350 1353 1355 1357 1358 1359 1360 1361 1362 1362 1362 1361 1361 1361 1360 1359 1359 1358 1358 1358 1358 1359 1359 1360 1361 1362 1363 1363 1364 1365 1365 1364 1364 1364 1364 1364 1364 1364 1364 1364
1334 1337 1339 1342 1344 1347 1349 1351 1353 1355 1356 1358 1358 1359 1359 1358 1357 1357 1357 1355 1354 1353 1353 1353 1353 1354 1354 1354 1355 1357 1357 1357 1357 1357 1357 1357 1356 1356 1356 1356 1356 1356 1356
1327 1330 1332 1335 1338 1339 1342 1344 1345 1348 1350 1351 1352 1353 1353 1353 1353 1353 1351 1350 1349 1349 1349 1349 1348 1348 1348 1348 1347 1347 1349 1349 1349 1349 1349 1349 1349 1349 1348 1348 1349 1349 1350
1321 1323 1326 1327 1328 1331 1335 1336 1338 1340 1341 1342 1344 1345 1346 1346 1346 1346 1345 1345 1344 1343 1342 1341 1341 1341 1340 1341 1340 1340 1340 1341 1341 1341 1340 1340 1341 1341 1341 1342 1343 1344 1345
1315 1319 1323 1324 1324 1326 1328 1329 1332 1332 1334 1334 1335 1336 1337 1338 1339 1338 1338 1338 1337 1336 1336 1335 1334 1333 1333 1333 1333 1332 1332 1333 1333 1333 1333 1333 1334 1335 1336 1338 1339 1340 1342
Wind_Speed
32 33 31 30 30 30 31 32 33 35 35 33 35 36 33 31 28 27 32 32 32 38 42 42 37 35 39 54 52 53 51 46 42 35 49 52 50 53 58 57 56 59 66
32 33 31 29 29 29 29 30 30 32 32 31 31 32 32 29 29 31 31 32 36 34 40 34 33 36 39 48 50 48 50 44 44 49 42 46 47 50 52 51 55 59 62
32 32 31 29 28 28 29 28 29 29 27 25 25 27 29 30 27 28 30 30 29 32 34 39 28 36 42 44 48 44 41 44 49 46 44 43 42 40 48 50 56 56 54
31 32 30 28 27 27 26 25 26 25 23 19 18 21 22 27 26 27 32 32 30 34 36 41 26 37 41 40 44 46 38 40 46 41 37 37 40 44 49 53 52 45 40
29 30 30 28 25 24 24 23 21 21 18 15 11 13 19 22 22 23 25 30 33 31 36 37 30 32 33 40 39 44 30 43 42 39 33 34 36 44 50 50 52 44 37
25 28 29 29 27 24 22 20 17 16 15 12 9 7 5 12 22 20 20 23 26 29 30 33 30 29 28 31 40 35 29 31 36 32 31 32 36 44 48 52 52 44 36
23 26 27 27 26 24 22 19 18 18 18 16 12 9 8 6 3 13 15 16 17 21 27 26 28 31 34 33 30 23 21 22 16 15 23 30 34 37 42 48 49 49 43
21 24 25 26 26 25 24 21 19 20 19 21 20 17 16 15 7 4 9 10 16 21 23 26 27 27 26 26 26 25 22 16 14 14 18 14 19 22 33 37 43 44 37
19 22 24 25 26 28 28 28 26 26 24 23 24 23 21 18 10 7 10 15 19 19 19 20 21 23 20 21 25 26 22 19 18 15 14 13 10 14 20 25 30 34 30
17 20 21 23 25 26 28 30 32 32 33 31 29 29 26 22 16 21 24 30 31 30 27 25 22 22 19 17 20 24 28 24 21 20 18 17 16 17 15 16 21 28 26
13 15 16 19 20 23 24 27 30 33 35 37 37 38 37 33 29 28 28 31 32 32 31 29 26 23 20 19 19 21 22 23 22 22 21 21 22 20 18 19 18 18 19
9 10 12 15 16 18 20 23 25 28 31 34 36 37 38 37 34 32 31 32 30 33 33 30 27 25 24 23 23 23 23 22 22 21 21 21 20 20 21 22 22 20 18
5 6 8 10 12 14 16 19 21 22 25 27 28 30 31 32 31 30 28 26 26 29 28 26 24 23 24 25 23 24 22 21 21 21 22 21 19 18 17 16 16 15 13
2 2 3 6 9 12 14 16 17 20 21 23 24 24 24 25 25 23 23 22 22 23 23 23 21 20 19 21 22 23 21 19 17 17 18 17 16 15 14 13 13 12 12
6 3 1 2 4 6 8 10 12 14 17 18 19 18 18 21 21 19 18 18 18 18 17 18 17 17 18 19 18 18 17 16 14 13 13 12 13 12 12 12 12 12 11
9 6 3 2 1 1 3 5 7 8 10 10 11 12 13 15 14 13 13 13 13 14 12 13 13 13 13 13 12 12 11 10 11 10 9 8 8 9 10 11 12 13 13
13 10 8 6 5 3 2 2 4 4 6 7 9 10 9 9 9 10 10 9 8 9 8 10 9 10 10 10 9 9 9 9 9 8 8 8 9 11 12 12 13 14 15
15 13 12 11 9 7 5 4 3 3 3 4 5 5 6 7 7 7 6 5 5 3 3 3 4 4 5 6 6 6 5 5 5 6 7 9 12 14 16 16 17 17 18
19 15 13 13 12 11 9 8 7 6 5 5 5 5 5 5 4 4 3 4 4 4 3 3 4 5 6 6 7 8 9 10 11 13 14 16 17 19 19 19 20 21 22
22 20 18 17 15 14 12 11 9 8 8 8 8 8 9 9 9 8 8 7 7 8 8 9 10 11 11 12 12 13 14 15 16 17 18 20 21 22 22 22 23 23 23
25 23 21 20 19 17 15 13 12 13 12 11 10 12 11 9 10 10 11 12 12 12 13 15 16 17 17 17 18 19 20 20 21 22 23 23 24 25 24 24 25 25 25
26 25 24 23 21 21 19 17 16 15 15 14 11 11 12 11 11 11 11 12 13 14 16 18 19 20 20 21 22 23 23 23 23 24 25 25 25 25 25 25 25 25 24
26 26 26 25 24 23 22 21 20 18 17 15 14 13 15 15 14 13 15 16 16 16 15 14 14 15 16 17 19 21 22 22 22 24 24 24 24 24 24 24 22 21 21
26 26 26 25 24 24 23 22 20 20 19 18 18 16 16 15 15 15 16 17 15 13 15 17 17 17 18 19 19 20 21 21 22 22 23 23 23 22 21 20 19 18 16
24 24 25 24 23 23 22 21 20 19 20 20 21 20 18 17 18 19 18 18 18 19 19 17 17 17 17 18 18 18 18 19 19 19 20 20 19 18 17 16 15 14 13
21 21 22 22 21 20 20 20 21 21 22 20 19 19 19 18 19 20 20 21 21 20 18 17 16 15 16 16 17 17 17 16 15 14 14 14 14 13 12 12 11 10 10
Wind_Direction
339 334 329 327 324 319 314 310 305 303 299 288 275 272 271 260 250 245 237 235 230 237 233 232 230 237 235 231 242 229 229 221 230 231 233 232 232 232 230 226 225 222 216
344 338 332 332 331 325 322 318 314 308 305 294 275 265 263 253 245 243 241 242 242 231 226 226 229 227 227 224 227 232 234 232 236 231 226 224 228 225 217 211 205 208 209
349 342 339 337 335 333 331 330 325 318 313 302 282 266 256 250 241 239 235 234 233 232 227 221 233 223 223 228 227 227 239 239 229 230 225 228 221 215 210 205 199 196 194
355 350 346 345 342 341 336 334 331 326 320 311 290 267 259 251 246 237 235 235 232 234 221 220 221 225 231 231 232 232 233 239 225 224 221 212 209 203 207 200 192 194 189
1 360 358 354 351 347 344 344 343 340 333 327 311 276 254 244 238 235 227 227 230 229 213 217 227 230 233 237 237 227 228 228 224 221 223 213 207 204 204 200 199 190 189
9 8 5 4 2 360 358 358 4 5 1 1 16 7 325 251 236 231 231 230 230 223 219 219 229 228 226 231 229 226 240 236 221 218 212 215 209 203 204 205 202 191 190
15 14 11 13 14 13 12 11 22 24 28 33 42 56 51 59 183 203 203 208 210 209 216 229 226 223 224 217 218 215 213 204 220 237 232 214 206 207 211 207 205 206 204
25 29 22 23 28 30 32 30 39 42 42 45 47 49 62 57 31 40 171 188 206 207 211 210 204 197 196 195 193 185 185 183 191 205 216 215 216 218 212 212 206 206 209
32 38 37 34 37 40 42 46 49 52 50 54 59 59 60 69 76 109 149 156 153 145 151 156 158 154 157 171 171 166 158 166 169 173 189 194 197 206 213 206 202 200 199
41 38 41 43 45 47 51 54 57 61 63 58 64 69 74 81 100 120 126 127 123 120 121 123 127 128 134 149 161 153 150 144 145 144 142 150 152 143 170 178 183 183 186
49 47 43 43 46 49 49 54 60 64 64 67 67 69 73 78 83 92 101 105 105 108 107 105 104 108 118 131 133 134 132 128 126 126 130 133 127 136 145 151 166 179 184
51 44 47 48 48 53 55 58 58 62 64 68 71 72 75 78 76 79 85 93 102 103 101 100 101 106 110 110 110 110 112 117 117 121 127 126 139 152 155 159 169 180 192
70 58 58 56 54 51 51 56 59 59 64 67 70 74 74 72 77 79 80 83 89 95 96 97 106 113 116 112 107 107 109 111 117 126 125 134 150 154 157 165 173 187 198
160 95 65 59 54 49 48 48 52 61 61 65 65 65 72 77 77 78 83 86 89 92 101 110 112 111 110 107 110 110 112 111 115 119 132 146 152 158 168 178 189 199 211
233 206 219 71 68 56 48 45 48 52 55 57 62 64 71 76 78 84 88 91 94 96 103 107 109 114 115 115 117 118 118 121 128 136 145 157 165 176 188 197 209 219 232
247 246 242 262 286 9 16 37 50 44 47 59 67 68 69 70 70 68 71 80 87 95 102 103 108 108 110 113 116 125 133 144 154 159 161 170 189 208 222 228 234 241 248
239 243 250 253 259 272 299 346 3 18 30 29 30 30 42 55 67 80 83 80 83 93 109 114 117 120 126 132 142 156 169 179 187 188 195 206 223 235 242 250 256 259 263
230 232 237 243 248 252 259 271 285 299 319 334 342 350 2 2 6 13 25 37 54 79 98 113 125 137 152 168 178 194 212 232 251 257 257 254 253 257 261 263 268 269 268
234 232 233 241 248 256 261 266 274 284 299 308 308 304 299 288 275 272 267 262 257 258 256 252 246 243 246 250 253 256 259 262 263 264 263 262 261 263 267 267 268 268 266
234 234 236 239 242 248 253 258 265 277 290 303 305 303 297 296 288 283 275 262 255 253 249 250 251 251 253 254 256 256 257 257 258 258 258 260 261 263 266 267 267 268 269
236 236 236 239 243 248 251 258 264 269 273 278 289 304 305 296 284 280 280 280 275 266 259 256 258 259 259 259 260 261 261 261 261 262 262 263 263 265 267 267 267 268 269
235 236 238 241 244 247 251 253 256 260 265 270 277 302 308 310 308 303 297 288 277 268 263 262 261 260 260 260 260 259 259 260 261 263 263 263 264 266 268 268 268 268 267
234 236 237 240 243 246 249 252 255 258 262 266 266 276 289 298 302 306 309 303 291 285 278 271 265 263 262 263 265 266 266 267 266 263 265 267 267 266 266 267 267 265 265
237 239 240 242 245 248 252 255 256 260 263 267 268 262 266 271 277 282 290 299 309 295 285 282 279 276 273 271 268 267 267 266 266 266 267 267 268 268 267 266 264 263 260
239 240 242 242 243 248 253 256 258 260 261 261 265 269 269 263 258 263 273 281 292 297 295 289 281 276 273 272 273 272 270 268 266 265 265 264 263 261 260 257 254 250 243
237 242 245 246 248 250 253 255 257 257 260 264 266 266 264 261 258 260 268 280 288 291 290 287 283 280 278 277 276 274 273 270 266 260 259 257 255 254 250 245 239 232 225